Dewpoint
49 49 54 50 44 44 36 32 40 36 38 39 40 40 42 43 42 41 62 66 68 69 71 72 73 73 73 73 73 73 72 71 71 70 70 69 67 67 69 69 67 67 67 65 67 66 67 67 67
47 51 50 47 39 31 24 35 35 37 37 36 37 39 38 35 40 59 63 67 68 69 71 71 72 73 73 73 73 72 72 71 72 71 71 70 69 67 69 68 68 68 68 65 66 67 67 67 63
46 48 42 40 37 22 26 32 32 32 34 34 37 38 37 39 46 60 63 68 68 69 70 70 72 72 73 73 72 72 72 71 72 71 71 71 69 67 69 68 69 69 68 66 65 66 66 63 63
43 43 42 37 31 33 31 33 34 33 33 36 39 34 39 43 53 59 67 68 67 69 69 71 71 72 72 72 72 72 72 71 72 71 70 70 69 68 69 69 69 68 67 66 65 64 62 61 64
42 40 34 33 31 33 33 34 32 30 33 34 37 34 37 41 57 63 68 68 67 68 69 71 71 71 72 72 72 72 71 71 71 71 70 70 69 69 69 69 69 68 67 65 64 61 60 62 63
36 37 30 25 27 29 29 30 30 29 29 30 33 39 38 45 52 59 60 66 68 67 69 70 71 70 72 72 72 72 71 71 71 70 70 70 69 70 69 69 69 68 67 64 62 60 61 62 62
35 31 28 28 26 26 28 29 27 27 27 27 33 33 37 41 55 56 57 58 67 68 69 69 70 70 72 72 72 71 71 71 71 70 70 69 70 70 69 69 69 68 66 64 62 61 61 62 62
39 36 32 30 24 25 27 29 28 27 26 28 34 37 34 50 51 52 55 57 59 68 68 69 70 70 70 72 71 71 71 71 70 70 70 69 68 69 69 68 69 69 67 65 64 63 62 62 61
42 35 31 30 29 29 32 31 32 31 32 35 38 37 38 45 46 52 52 56 56 67 68 68 69 69 69 71 71 71 71 70 70 69 68 68 67 67 67 68 69 68 67 66 64 64 64 62 60
39 35 31 32 32 32 33 32 32 37 36 36 36 39 41 42 46 49 50 52 56 58 66 67 68 69 69 69 70 70 70 69 68 68 67 66 63 64 64 67 68 68 68 66 65 65 63 61 59
39 33 33 34 34 35 33 33 37 38 36 37 34 32 36 41 45 50 54 56 54 56 67 66 67 68 68 67 69 69 69 68 67 66 64 63 60 62 64 67 67 67 66 66 66 65 62 59 58
36 37 36 33 34 34 32 33 34 39 37 36 38 39 40 41 42 48 51 53 53 53 56 66 66 68 67 67 67 67 67 66 64 63 63 61 60 62 63 65 65 65 64 64 62 61 60 59 58
37 36 37 38 37 36 36 35 35 36 38 40 40 40 39 42 43 48 49 54 53 55 56 66 67 67 66 64 66 67 65 64 63 63 62 61 60 60 63 64 64 64 63 62 60 58 57 57 56
38 38 39 39 39 38 35 35 39 38 39 40 39 38 38 40 42 47 51 51 54 55 61 66 66 67 65 63 65 66 65 64 62 62 62 61 60 60 62 64 63 63 63 61 60 58 55 55 54
39 38 38 37 38 39 38 37 36 38 39 38 38 38 38 39 42 48 52 54 55 60 60 65 66 66 65 64 64 65 64 63 62 62 62 62 62 61 61 62 62 63 63 62 60 59 56 54 51
38 36 31 32 36 38 38 32 34 35 38 38 38 38 37 39 48 50 54 57 59 59 60 62 64 66 66 66 65 64 64 63 62 61 60 62 62 62 61 61 61 62 62 61 59 56 51 51 50
35 30 32 34 35 36 38 34 36 37 38 39 40 42 40 42 48 53 57 58 56 56 56 60 62 63 64 66 66 65 64 63 61 60 60 61 62 62 61 61 61 60 59 57 55 54 53 53 53
30 30 32 31 34 37 36 36 37 37 37 37 37 43 49 49 50 53 55 57 57 58 58 60 61 61 62 63 63 62 63 61 59 59 59 60 61 61 60 60 59 57 56 52 54 55 56 56 55
35 34 33 32 37 37 35 35 35 37 37 36 38 45 48 50 53 55 56 57 57 58 58 60 60 61 61 60 61 60 61 59 57 58 59 58 59 58 58 57 56 54 54 54 55 56 55 56 57
32 32 29 34 37 35 35 34 35 39 35 36 42 44 45 53 54 55 55 56 56 57 57 59 60 60 62 59 60 61 60 59 57 57 57 57 57 57 56 56 55 55 55 56 57 57 56 56 60
30 28 30 28 29 31 34 30 34 37 42 43 43 46 48 52 53 54 55 56 56 56 57 58 59 61 62 59 58 59 60 60 59 57 57 57 57 58 58 58 58 57 58 57 57 58 57 57 60
27 31 30 28 28 26 30 25 30 32 37 43 43 48 51 53 54 54 55 56 57 57 58 60 59 60 62 61 58 58 58 58 59 57 57 58 58 59 60 61 60 59 60 60 60 60 59 59 59
28 29 30 29 28 27 27 29 27 31 36 39 42 44 52 53 54 55 56 57 59 59 58 58 60 61 61 61 60 58 58 58 59 59 59 59 59 60 60 63 62 61 62 61 61 61 61 60 59
29 30 29 29 28 25 25 30 25 28 38 39 40 42 51 52 53 56 57 58 58 58 58 58 59 61 62 61 61 60 59 58 58 59 59 60 61 61 61 63 63 63 62 61 61 61 61 61 60
29 26 21 21 22 24 27 26 29 30 40 42 40 42 42 51 53 55 55 56 56 56 57 57 58 58 60 61 61 60 59 58 58 57 60 60 61 61 62 62 62 62 62 62 62 61 61 61 59
28 28 23 18 20 24 26 25 29 30 36 40 42 43 41 45 53 53 54 55 55 56 57 56 57 58 59 58 59 59 59 58 57 57 59 60 61 61 62 62 62 62 61 62 61 61 60 60 60
27 26 32 28 29 20 26 27 28 30 30 34 39 41 39 41 44 51 53 55 54 55 56 57 56 58 58 59 58 59 59 58 58 58 58 59 59 59 60 61 61 61 61 60 60 60 60 61 61
27 29 22 24 18 18 24 26 27 31 29 30 31 35 38 40 40 40 41 44 54 55 57 57 57 57 58 59 58 58 58 59 59 59 58 59 59 59 59 59 59 59 60 60 60 60 60 61 61
20 22 26 25 26 20 19 25 34 31 30 32 32 32 33 38 41 41 42 42 39 43 51 57 58 57 58 58 58 58 58 59 59 59 59 59 59 59 58 58 58 58 59 60 60 60 60 59 59
22 20 25 18 21 24 23 25 32 32 33 33 33 33 33 34 37 41 43 44 45 44 45 48 57 58 57 58 58 58 58 59 59 59 59 59 59 59 59 59 59 59 60 60 59 58 58 58 57
Wind_Speed
4 6 2 2 5 7 11 10 5 4 5 12 14 9 12 20 7 6 2 12 17 32 29 29 30 33 32 31 29 28 26 25 24 24 24 26 24 23 20 23 23 21 20 22 20 21 21 21 20
4 2 4 3 6 11 10 14 17 7 3 12 5 24 29 29 15 1 13 12 24 25 28 27 29 30 32 31 30 28 28 26 24 24 23 26 25 23 22 24 23 22 23 23 19 18 18 17 16
6 2 4 6 8 24 8 7 5 12 15 10 5 5 6 5 13 7 7 23 27 24 23 25 29 29 31 32 30 29 28 27 25 24 24 24 25 24 23 23 23 23 23 21 18 16 15 15 14
5 4 4 4 26 16 6 7 11 13 13 7 7 14 9 2 17 10 18 28 29 25 21 25 28 29 30 32 31 29 28 28 27 25 24 24 25 23 22 24 24 24 23 21 16 13 13 13 13
3 3 3 8 24 10 9 16 18 20 11 15 10 13 16 16 20 26 12 25 30 25 23 25 28 27 27 31 31 31 28 27 28 26 24 25 25 24 24 24 23 23 22 21 18 13 13 13 13
3 3 4 18 24 16 14 4 14 18 18 24 10 11 10 7 13 16 22 13 25 30 26 27 27 28 27 30 31 30 29 27 27 26 25 25 25 26 26 24 22 21 21 20 18 14 12 12 14
4 3 6 14 24 18 9 3 4 14 19 28 10 23 11 9 10 12 19 19 13 19 28 25 24 25 26 29 30 29 29 28 26 26 26 26 27 26 26 23 22 21 20 18 17 15 12 10 11
2 1 5 9 18 26 14 7 6 12 16 15 11 12 21 3 12 13 14 17 25 18 21 27 22 23 22 23 28 29 28 28 26 25 26 27 26 25 24 22 21 21 19 16 15 15 13 10 8
2 5 15 20 18 22 22 18 19 12 19 19 11 24 21 13 15 13 17 13 16 15 22 23 27 24 23 20 24 26 26 26 26 26 29 28 21 21 22 19 21 21 20 17 15 13 12 10 8
8 9 20 17 22 23 25 19 19 8 17 23 21 19 20 16 14 12 13 15 11 22 28 25 23 25 26 22 21 20 23 21 22 23 25 20 20 18 17 21 22 20 19 17 15 12 10 8 6
7 22 21 23 21 19 24 23 10 16 26 24 31 24 21 15 16 14 11 6 8 22 29 29 25 22 25 23 22 17 17 18 19 23 21 21 18 16 15 15 16 15 16 12 12 11 9 7 6
11 19 23 27 22 19 23 19 23 19 38 26 24 22 19 17 20 17 14 10 10 20 34 22 25 23 22 22 21 20 18 19 18 19 22 19 18 16 15 13 15 15 13 13 12 10 8 6 5
20 23 21 25 25 26 24 29 28 31 30 25 23 29 27 22 22 19 14 9 8 10 24 29 27 25 22 25 20 20 20 19 18 19 21 18 19 19 17 14 14 14 14 14 13 11 9 8 7
8 15 21 21 24 20 24 30 11 34 28 26 26 31 35 27 24 19 17 12 8 15 17 30 29 27 26 25 22 21 21 20 19 18 20 19 19 20 17 16 14 14 15 14 13 13 12 11 8
13 20 23 24 20 15 12 24 28 39 26 27 27 30 34 31 25 23 17 9 9 6 7 30 28 26 30 26 25 20 22 20 20 19 21 21 18 18 15 17 16 16 14 15 12 11 8 8 7
6 4 7 6 3 7 9 34 27 22 21 26 32 34 36 29 27 22 18 16 10 5 11 10 18 24 27 26 25 23 22 20 20 20 19 22 21 21 15 15 16 16 16 15 14 11 9 10 9
3 7 12 13 7 12 16 22 26 12 14 19 22 26 24 29 22 19 21 23 16 5 5 13 13 21 19 23 21 22 20 21 20 20 19 22 23 22 18 16 16 16 15 15 14 11 10 10 9
6 11 10 17 10 16 22 34 37 27 19 29 26 21 16 22 25 18 20 18 14 7 2 8 5 15 13 19 14 15 16 15 20 21 20 23 21 22 20 17 17 16 15 16 14 12 7 8 9
12 12 17 19 16 12 15 26 30 28 24 25 21 15 11 17 12 22 16 19 17 11 10 11 7 7 12 15 24 16 20 16 18 19 22 23 21 21 20 17 17 16 18 16 15 8 11 5 5
15 13 19 13 17 11 20 20 20 22 9 14 7 14 14 11 16 20 19 14 18 19 12 11 16 10 13 15 15 21 17 14 17 18 21 21 21 20 19 18 17 17 16 17 15 12 7 5 7
9 9 7 16 19 9 11 5 28 32 16 13 11 16 15 22 22 21 20 19 18 20 15 17 19 16 17 20 17 17 17 13 11 13 17 19 20 19 18 18 18 17 16 18 17 14 14 9 4
11 4 11 16 15 7 5 6 26 28 33 30 27 24 13 20 18 19 18 13 8 14 11 9 19 20 17 19 23 29 24 26 16 18 17 17 18 19 18 17 17 18 15 18 16 13 11 11 11
8 15 13 14 13 8 5 4 20 21 24 22 29 22 6 11 22 17 13 16 12 15 13 9 10 16 19 21 17 19 22 20 20 15 16 18 16 18 18 17 18 19 16 16 18 16 17 13 13
14 5 6 3 2 6 15 4 15 26 23 27 34 31 18 4 10 18 14 15 13 9 8 5 6 20 18 25 22 21 17 14 19 22 20 18 16 16 18 17 17 16 15 18 16 14 15 15 12
16 7 4 2 2 4 7 12 10 23 21 19 22 27 27 19 10 14 15 12 13 9 6 4 4 9 18 20 26 24 22 18 13 21 22 20 17 15 17 18 18 16 14 14 13 14 13 14 12
9 4 3 3 2 4 10 6 12 19 15 17 17 24 22 25 14 10 3 5 10 8 6 6 1 9 15 17 14 17 18 15 15 12 6 20 22 21 17 17 17 17 16 15 14 13 11 9 9
7 6 3 3 3 8 6 10 3 26 22 14 19 25 23 17 16 12 9 4 12 10 9 5 1 4 3 12 14 15 14 15 15 15 15 10 10 12 13 10 11 8 12 14 13 12 12 10 12
6 6 3 5 4 6 3 7 10 19 20 22 22 21 23 20 21 16 11 7 4 4 2 7 9 7 6 3 14 10 10 10 14 15 16 9 8 10 11 8 10 8 7 10 12 11 9 12 12
11 9 6 4 4 4 3 5 12 14 16 20 21 19 20 22 21 19 15 14 10 8 2 4 9 11 11 11 8 6 7 3 5 7 8 7 8 9 10 13 16 15 14 12 14 14 12 12 12
6 9 4 4 3 5 5 4 12 12 15 20 21 21 20 20 20 19 18 18 18 17 16 9 3 13 16 16 16 13 10 7 7 10 11 12 17 15 15 18 19 16 14 15 16 15 15 14 15
Wind_Direction
5 332 78 64 180 236 243 241 206 52 170 220 240 222 215 224 196 217 346 168 142 158 164 167 165 158 155 151 150 149 147 147 147 146 143 140 140 141 142 138 133 134 124 119 119 115 113 108 106
347 65 55 114 211 228 247 225 245 260 5 352 297 238 252 263 261 360 134 163 150 161 162 166 167 160 156 154 153 153 152 151 151 152 149 145 147 144 139 135 133 126 119 115 122 120 116 114 105
335 335 126 164 224 229 230 89 39 252 333 335 321 344 292 260 346 223 185 151 151 160 167 166 166 164 159 155 156 155 155 153 152 151 152 152 148 146 143 136 129 124 118 121 126 127 126 117 104
4 39 41 244 232 242 192 257 8 355 337 73 8 297 309 120 337 301 168 151 153 159 167 169 167 166 163 158 157 158 158 157 154 156 157 153 150 145 143 135 126 124 123 126 128 131 128 117 107
48 74 231 249 258 252 275 303 315 308 298 287 340 286 295 309 3 14 164 155 155 161 161 169 167 168 165 162 160 159 161 158 156 157 157 156 150 144 138 133 130 128 129 129 132 136 134 119 99
83 115 221 246 257 281 276 270 291 289 289 280 294 281 267 292 12 357 5 315 165 161 163 167 169 168 167 164 161 161 161 160 158 157 156 155 148 141 140 136 135 134 133 133 136 137 134 120 106
156 144 236 265 272 280 278 0 260 275 268 278 264 269 263 298 17 355 350 337 272 170 158 166 167 168 168 166 163 163 161 161 161 159 156 153 143 143 144 142 142 140 138 138 137 136 131 122 113
163 145 261 247 268 283 277 274 247 264 279 266 237 248 254 171 345 345 337 323 327 189 169 162 165 164 169 167 165 163 163 160 161 157 149 146 143 144 143 144 147 141 136 138 138 137 133 130 120
81 228 247 251 262 270 287 285 287 271 267 279 242 250 265 310 322 332 330 303 340 211 182 171 163 167 167 164 166 160 160 159 156 152 146 144 145 145 143 144 142 139 139 141 143 142 140 141 136
191 232 248 244 244 262 274 267 272 272 276 265 261 267 272 278 280 276 262 280 307 320 186 176 169 167 163 163 165 160 158 159 155 154 151 146 148 146 145 144 140 142 143 145 148 150 151 148 154
202 237 245 255 256 249 260 271 261 259 264 247 259 261 260 255 255 259 263 255 269 333 182 172 169 169 163 165 162 159 155 155 158 156 150 150 152 142 145 143 138 139 142 146 150 154 161 172 175
230 241 242 260 253 259 261 269 263 245 254 257 253 259 257 260 250 240 240 248 307 316 334 176 172 169 166 160 162 160 156 156 162 159 144 155 152 154 147 144 143 146 153 157 160 165 173 189 207
226 245 252 255 261 257 263 262 261 264 260 257 258 274 272 255 252 238 224 244 286 251 291 194 170 166 164 162 161 156 153 155 158 156 153 155 159 166 150 151 153 155 162 169 172 175 184 207 232
252 264 266 266 262 255 253 261 245 263 257 257 257 256 261 252 251 244 209 198 246 293 267 173 169 160 162 165 163 157 155 155 154 160 160 159 166 170 161 160 163 164 174 179 180 185 193 207 214
255 270 276 267 254 244 231 266 243 256 267 259 257 252 257 249 241 230 223 164 171 215 252 164 167 159 160 166 163 164 159 157 157 161 166 163 164 170 173 156 167 170 179 184 189 196 208 222 218
250 240 296 313 316 253 146 271 267 249 242 255 250 252 250 248 221 202 190 142 132 71 288 130 152 163 161 160 166 163 170 161 162 160 169 170 168 173 171 166 170 173 184 187 193 198 204 208 211
267 278 291 304 237 245 200 266 270 260 237 247 260 258 236 240 220 190 164 145 137 156 326 294 151 151 151 160 159 161 165 164 164 163 173 172 173 174 173 179 184 181 185 191 189 193 186 190 192
268 288 287 302 311 288 248 250 268 271 261 272 273 249 222 225 209 180 178 147 137 184 338 285 275 133 164 154 137 149 161 165 167 172 173 172 176 171 174 179 187 180 180 185 185 174 180 182 192
255 269 279 294 291 309 267 257 271 291 264 264 263 260 237 244 181 154 148 137 144 159 154 216 235 153 152 171 156 162 168 162 170 170 166 166 174 171 173 176 177 178 181 181 178 172 180 177 171
272 269 290 295 282 275 274 278 331 321 291 270 241 258 220 183 116 116 133 144 164 164 162 181 208 211 190 178 174 163 169 163 165 163 161 162 162 167 170 171 175 178 179 181 179 172 168 174 152
309 277 324 315 321 310 279 300 4 359 13 360 325 307 191 148 156 146 148 162 179 142 153 193 197 205 198 172 162 149 148 138 154 159 156 162 165 168 170 172 177 183 180 187 184 182 179 160 103
308 264 332 320 333 325 348 302 4 356 12 8 8 356 138 147 144 151 164 160 156 136 182 182 192 194 188 176 164 162 167 169 176 165 170 169 169 174 177 179 181 185 183 184 184 175 168 155 159
276 287 283 291 299 312 9 58 353 357 24 6 9 358 13 150 137 149 153 149 141 141 169 170 199 203 192 176 170 166 162 165 163 174 173 173 177 179 184 183 183 186 183 183 173 171 172 165 160
331 287 294 274 245 52 25 45 360 1 6 15 7 7 13 236 134 138 121 107 125 148 174 224 177 193 196 188 168 169 167 160 171 177 178 179 182 187 187 186 181 175 178 180 174 169 175 177 172
350 27 33 84 91 92 2 55 19 356 3 12 6 358 13 355 103 102 111 141 135 165 195 222 300 266 160 164 172 167 172 181 207 192 178 174 179 186 189 180 180 180 178 176 169 180 188 189 180
319 9 67 94 58 87 34 48 27 6 19 6 15 12 13 19 44 106 130 95 134 170 198 194 130 10 125 140 130 160 167 178 193 231 196 182 184 185 176 176 181 186 181 173 174 180 186 194 202
337 28 342 46 19 69 26 27 359 359 12 7 6 30 9 29 40 36 1 63 184 182 204 187 171 83 84 158 153 141 150 188 183 196 213 212 173 170 158 171 185 166 163 170 176 191 202 212 214
47 328 51 19 76 74 39 37 12 0 9 22 20 20 14 22 37 43 34 360 281 277 192 215 194 180 168 78 152 154 156 149 156 172 180 181 175 166 170 194 213 208 207 197 195 202 210 214 223
13 19 28 84 34 98 109 50 16 9 9 18 21 22 22 23 22 29 32 31 23 13 242 211 200 193 175 175 156 167 201 189 146 186 211 215 215 213 203 201 216 212 208 205 199 194 197 220 225
62 14 40 69 38 48 104 70 18 14 30 27 22 18 24 26 26 24 26 31 37 37 47 49 231 197 194 186 193 194 204 210 221 216 203 191 209 217 207 205 204 204 201 197 202 205 202 203 215